CFE25Q LPFR-EGHI

Flight info

Callsign CFE25Q
Flight time N/A
Altitude 40000
Route PINEK DCT KORUL DCT KOLEK DCT FEJAC DCT JSY DCT REVTU UY110 ORIST Y110 THRED
Aircraft E190/M-SDE3GILORVW/S

Departure

Time 2026-04-27 12:25
Airport Faro - Gago Coutinho International Airport (LPFR)

Arrival

Time N/A
Airport Southampton Airport (EGHI)
Time Latitude Longitude Altitude Speed Heading
2026-04-27 12:14 37.01791 -7.97323 19 ft 0 kts 160°
2026-04-27 12:20 37.01789 -7.97323 19 ft 1 kts 165°
2026-04-27 12:20 37.01776 -7.97324 19 ft 4 kts 186°
2026-04-27 12:21 37.01746 -7.97356 19 ft 8 kts 247°
2026-04-27 12:21 37.01748 -7.97440 18 ft 10 kts 280°
2026-04-27 12:21 37.01762 -7.97537 20 ft 12 kts 279°
2026-04-27 12:21 37.01778 -7.97649 19 ft 14 kts 281°
2026-04-27 12:22 37.01795 -7.97768 21 ft 14 kts 280°
2026-04-27 12:22 37.01813 -7.97893 21 ft 15 kts 280°
2026-04-27 12:22 37.01832 -7.98029 25 ft 16 kts 280°
2026-04-27 12:22 37.01851 -7.98167 26 ft 16 kts 280°
2026-04-27 12:23 37.01870 -7.98304 26 ft 17 kts 280°
2026-04-27 12:23 37.01891 -7.98447 27 ft 13 kts 280°
2026-04-27 12:23 37.01869 -7.98559 24 ft 15 kts 214°
2026-04-27 12:23 37.01777 -7.98587 26 ft 13 kts 191°
2026-04-27 12:24 37.01721 -7.98551 26 ft 0 kts 104°
2026-04-27 12:24 37.01698 -7.98394 26 ft 52 kts 100°
2026-04-27 12:24 37.01592 -7.97636 17 ft 123 kts 100°
2026-04-27 12:24 37.01416 -7.96389 221 ft 164 kts 102°
2026-04-27 12:25 37.01204 -7.94846 850 ft 191 kts 99°
2026-04-27 12:25 37.00985 -7.93145 1550 ft 209 kts 99°
2026-04-27 12:25 37.00691 -7.91319 2265 ft 218 kts 102°
2026-04-27 12:25 37.00403 -7.89454 3126 ft 221 kts 99°
2026-04-27 12:26 37.00084 -7.87558 3914 ft 227 kts 102°
2026-04-27 12:26 37.00041 -7.85538 4475 ft 250 kts 73°
2026-04-27 12:26 37.01050 -7.83745 5246 ft 263 kts 37°
2026-04-27 12:26 37.02774 -7.82919 6206 ft 272 kts 11°
2026-04-27 12:27 37.04683 -7.82905 7206 ft 279 kts 353°
2026-04-27 12:27 37.06533 -7.83739 8077 ft 288 kts 327°
2026-04-27 12:27 37.07911 -7.85576 8959 ft 295 kts 297°
2026-04-27 12:27 37.08412 -7.88042 9911 ft 295 kts 270°
2026-04-27 12:28 37.08287 -7.90628 10554 ft 306 kts 260°
2026-04-27 12:28 37.08341 -7.93361 11030 ft 327 kts 283°
2026-04-27 12:28 37.09199 -7.96086 11503 ft 346 kts 294°
2026-04-27 12:28 37.10618 -7.98563 12156 ft 358 kts 319°
2026-04-27 12:29 37.12808 -8.00058 12950 ft 366 kts 345°
2026-04-27 12:29 37.15344 -8.00221 13855 ft 370 kts 10°
2026-04-27 12:29 37.17821 -7.99396 14839 ft 369 kts 19°
2026-04-27 12:29 37.20271 -7.98345 15754 ft 374 kts 19°
2026-04-27 12:30 37.22781 -7.97567 16597 ft 379 kts 11°
2026-04-27 12:30 37.25411 -7.97185 17435 ft 383 kts
2026-04-27 12:30 37.28080 -7.97000 18215 ft 388 kts
2026-04-27 12:30 37.30785 -7.96854 18947 ft 390 kts
2026-04-27 12:31 37.33517 -7.96710 19563 ft 397 kts
2026-04-27 12:31 37.36302 -7.96547 20215 ft 402 kts
2026-04-27 12:31 37.39108 -7.96378 20875 ft 407 kts
2026-04-27 12:31 37.41949 -7.96203 21497 ft 410 kts
2026-04-27 12:32 37.44806 -7.96022 22176 ft 413 kts
2026-04-27 12:32 37.47699 -7.95832 22671 ft 419 kts
2026-04-27 12:32 37.50619 -7.95635 23228 ft 422 kts
2026-04-27 12:32 37.53561 -7.95432 23737 ft 426 kts
2026-04-27 12:33 37.56535 -7.95224 24209 ft 429 kts
2026-04-27 12:33 37.59527 -7.95035 24683 ft 432 kts
2026-04-27 12:33 37.62542 -7.95244 25126 ft 435 kts 353°
2026-04-27 12:33 37.65548 -7.95707 25624 ft 437 kts 352°